Location: Bosdarros
(43.2167°N, 0.3667°W)
Time: 15:15:26
(UTC+00:00)

BREEZE M DEB (TANK) - Pass Details

Date: 22 April 2021
Orbit: 273 x 14497 km, 49.5° (Epoch: 12 May)

Event Time Altitude Azimuth Distance (km) Brightness Sun altitude
Rises 20:14:44 0° 249° (WSW) 7,908 8.7 -14.3°
Reaches altitude 10° 20:22:17 10° 252° (WSW) 4,925 7.6 -15.4°
Maximum altitude 20:32:08 63° 333° (NNW) 857 3.5 -16.9°
Enters shadow 20:35:09 11° 56° (NE) 1,567 4.4 -17.3°
